ECHOSTAR 23

导读 | 豆包AI

EchoStar 23是一颗由美国EchoStar公司运营的通信卫星,于2017年3月16日从卡纳维拉尔角发射。它由Space Systems Loral建造,采用SSL 1300S平台,发射重量达5500千克,定位于西经67.9°地球静止轨道,设计寿命15年。该卫星主要为巴西地区提供高性能卫星通信和广播服务,增强了南美区域的通信覆盖能力,目前仍在正常服役中。

基本信息
目录编号:
42070
目录名称:
ECHOSTAR 23
国际标识:
2017-014A
轨道中心:
EARTH
卫星名称:
ECHOSTAR 23
卫星全名:
--
卫星状态:
在轨 (已飞行3286 天)
发射日期:
2017-03-16 UTC
国别 :
美国 (US)
星等 :
--
轨道信息
数据来源 国际轨道数据 AOE轨道数据
星历时间 2026-03-14T10:51:11+0800
1天前
查看轨道信息
2026-03-14T17:00:00+0800
1天前
查看轨道信息
半长轴 42165.261km 42165.962km
偏心率 0.0001929 0.0002098
轨道倾角 0.026° 0.022°
近地点辐角 194.536° 194.963°
升交点赤经 151.637° 151.699°
平近点角 118.477° 210.434°
近地点 35778.99km 35778.978km
远地点 35795.258km 35796.672km
周期 1436.124分钟 1436.160分钟
每日圈数 1.002699 1.002674
详细信息
使用方式:
暂无
2D轨道图
3D轨道图
轨道高度分析图
轨道倾角分析图
轨道综合分析图
查看轨道综合分析图